Back to catalog

TITAN 34B AGENA D DEB

AliveHEO
NORAD 23811·DEBRIS·🇺🇸 United States

Launched Jul 31, 1983 from Vandenberg Space Force Base

Loading…

Next Passes (next 24 hours)

TLE

FreshSource: Space-Track

Epoch: Sep 13, 2026, 18:08 UTC

1 23811U 83078C   26256.75579120  .00004708  00000-0  23244-2 0  9994
2 23811  63.3576  53.5226 4881983 248.9633  53.4631  5.71138283143082

Track TITAN 34B AGENA D DEB in real time with AllMySat

Download on the App Store